Preview of NWS' New Version of Forecast
This preview is not operational and should not be used for support decisions.

Regional Weather Roundup (RWR)

Issued by National Weather Service (NWS)

                            
000
ASUS44 KJAN 191810
RWRMS 

MISSISSIPPI HOURLY WEATHER ROUNDUP
NATIONAL WEATHER SERVICE JACKSON MS
100 PM CDT FRI APR 19 2019

NOTE: "FAIR: INDICATES FEW OR NO CLOUDS BELOW 12,000 FEET WITH NO
SIGNIFICANT WEATHER AND/OR OBSTRUCTIONS TO VISIBILITY.

MSZ001>002-007>008-010>013-018>021-025>028-034>036-191900-
NORTHWEST MISSISSIPPI
  
CITY           SKY/WX    TMP DP  RH WIND       PRES   REMARKS
BATESVILLE     CLOUDY    52  43  71 N9        29.77S                  
CLARKSDALE     MOSUNNY   52  48  87 NW22      29.81S                  
CLEVELAND      RAIN      51  45  79 NW16G23   29.83R                  
GREENWOOD      CLOUDY    54  43  66 VRB7      29.79S                  
6HR MIN TEMP:  49; 6HR MAX TEMP:  54; 6HR PCP:  0.01;                

GREENVILLE     CLOUDY    54  44  69 NW14      29.83R                  
6HR MIN TEMP:  50; 6HR MAX TEMP:  57; 6HR PCP:  0.01;                

OLIVE BRANCH   LGT RAIN  46  46 100 N17G28    29.75F                  
OXFORD         DRIZZLE   48  43  81 NW20G26   29.77R                  
TUNICA           N/A     50  41  71 NW20      29.80S                  
WINONA         CLOUDY    49  43  81 N5        29.78S                  
$$

MSZ003>006-009-014>017-022>024-029>033-037>039-191900-
NORTHEAST MISSISSIPPI
  
CITY           SKY/WX    TMP DP  RH WIND       PRES   REMARKS
ABERDEEN       DRIZZLE   48  48 100 NW12G24   29.71S                  
COLUMBUS AFB   LGT RAIN  49  45  86 NW22      29.70R                  
6HR MIN TEMP:  49; 6HR MAX TEMP:  53; 6HR PCP:  0.03;                

CORINTH        DRIZZLE   48  45  87 NW14G24   29.67S                  
GOLDN TRIANGLE LGT RAIN  48  46  93 W15G23    29.73R FOG              
STARKVILLE     CLOUDY    50  45  81 W7G20     29.75S                  
TUPELO         LGT RAIN  49  44  83 NW12G22   29.70R                  
6HR MIN TEMP:  49; 6HR MAX TEMP:  50; 6HR PCP:  0.01;                

$$

MSZ040-058-191900-
CENTRAL MISSISSIPPI
  
CITY           SKY/WX    TMP DP  RH WIND       PRES   REMARKS
JACKSON INTL   PTSUNNY   58  45  62 NW15G25   29.80F                  
6HR MIN TEMP:  50; 6HR MAX TEMP:  59; 6HR PCP:  0.01;                

JACKSON HAWKNS CLOUDY    57  46  66 W13G21    29.81S                  
6HR MIN TEMP:  51; 6HR MAX TEMP:  59; 6HR PCP:  0.01;                

MADISON        MOCLDY    52  48  87 NW13G18   29.80S                  
MERIDIAN KEY   LGT RAIN  53  47  79 NW12      29.76R                  
6HR MIN TEMP:  52; 6HR MAX TEMP:  56; 6HR PCP: TRACE;                

MERIDIAN NAS   LGT RAIN  51  47  86 NW18      29.75R FOG              
6HR MIN TEMP:  51; 6HR MAX TEMP:  56; 6HR PCP:  0.01;                

RAYMOND        FAIR      57  52  82 NW10      29.82R                  
VICKSBURG VKS  PTCLDY    52  48  87 NW10G20   29.85R HAZE             
$$

MSZ059>079-191900-
SOUTH MISSISSIPPI
  
CITY           SKY/WX    TMP DP  RH WIND       PRES   REMARKS
HATTIESBURG    PTSUNNY   61  42  49 W23G30    29.79F                  
6HR MIN TEMP:  53; 6HR MAX TEMP:  62; 6HR PCP: TRACE;                

LAUREL         CLOUDY    58  44  61 NW21G26   29.78S                  
MCCOMB         LGT RAIN  58  47  66 W14G22    29.84S                  
6HR MIN TEMP:  52; 6HR MAX TEMP:  63; 6HR PCP:  0.04;                

NATCHEZ        PTSUNNY   61  45  55 NW18G25   29.86F                  
6HR MIN TEMP:  50; 6HR MAX TEMP:  63;                                

PINE BELT      CLOUDY    58  45  62 NW9G22    29.80S                  
6HR MIN TEMP:  52; 6HR MAX TEMP:  60; 6HR PCP: TRACE;                

$$

MSZ080>082-191900-
COASTAL MISSISSIPPI
  
CITY           SKY/WX    TMP DP  RH WIND       PRES   REMARKS
BAY ST LOUIS   PTSUNNY   64  45  48 NW8G26    29.81S                  
BILOXI         CLOUDY    66  46  49 NW14G25   29.79S                  
6HR MIN TEMP:  56; 6HR MAX TEMP:  66;                                

PASCAGOULA     CLOUDY    64  47  53 NW9G21    29.78S                  
6HR MIN TEMP:  57; 6HR MAX TEMP:  66;                                

GULFPORT       FAIR      66  45  46 NW18G29   29.79S                  
6HR MIN TEMP:  55; 6HR MAX TEMP:  67;                                

$$

LAZ007>009-015>016-023>026-191900-
NORTHEAST LOUISIANA
  
CITY           SKY/WX    TMP DP  RH WIND       PRES   REMARKS
BASTROP        CLOUDY    59  42  53 NW10G24   29.87S                  
TALLULAH/VBURG PTSUNNY   55  48  77 NW10G18   29.84S                  
6HR MIN TEMP:  50; 6HR MAX TEMP:  61; 6HR PCP:  0.03;                

VIDALIA        MOCLDY    63  46  53 NW14G21   29.86F                  
$$